SSEC Globe Logo

Space Science and Engineering Center

Surface Aviation Observations

KAIG 210215Z AUTO 06004KT 7SM SCT120 18/18 A2998 RMK AO2
     T01800180=
KAIG 210215Z AUTO 06004KT 7SM SCT120 18/18 A2998 RMK AO2
     T01800180=
KAIG 210155Z AUTO 03004KT 7SM CLR 18/18 A2998 RMK AO2
     T01770177=
KAIG 210155Z AUTO 03004KT 7SM CLR 18/18 A2998 RMK AO2
     T01770177=
KC29 210215Z AUTO 30005KT 3/4SM BKN007 OVC012 19/19 A2983
     RMK AO1 P0064 T01900190=
KC29 210215Z AUTO 30005KT 3/4SM BKN007 OVC012 19/19 A2983
     RMK AO1 P0064 T01900190=
KC29 210155Z AUTO 25005KT 1/2SM OVC007 19/19 A2986 RMK AO1
     P0137 T01910185=
KC29 210155Z AUTO 25005KT 1/2SM OVC007 19/19 A2986 RMK AO1
     P0137 T01910185=
KUBE 210215Z AUTO 36005KT 7SM OVC013 17/16 A3002 RMK AO2=
KUBE 210215Z AUTO 36005KT 7SM OVC013 17/16 A3002 RMK AO2=
KUBE 210155Z AUTO 36004KT 10SM OVC013 16/16 A3001 RMK AO2=
KUBE 210155Z AUTO 36004KT 10SM OVC013 16/16 A3001 RMK AO2=
KPVB 210215Z AUTO 03010G17KT 7SM SCT075 BKN090 OVC120 19/19
     A2983 RMK AO1 P0003 T01850185=
KPVB 210215Z AUTO 03010G17KT 7SM SCT075 BKN090 OVC120 19/19
     A2983 RMK AO1 P0003 T01850185=
KPVB 210155Z AUTO 03016G22KT 7SM SCT075 OVC090 18/18 A2982
     RMK AO1 P0008 T01830183=
KPVB 210155Z AUTO 03016G22KT 7SM SCT075 OVC090 18/18 A2982
     RMK AO1 P0008 T01830183=
KEZS 210215Z AUTO 06008KT 10SM BKN110 22/19 A2994 RMK AO2
     T02230190=
KEZS 210215Z AUTO 06008KT 10SM BKN110 22/19 A2994 RMK AO2
     T02230190=
KEZS 210155Z AUTO 06009KT 10SM SCT120 23/19 A2995 RMK AO2
     T02250190=
KEZS 210155Z AUTO 06009KT 10SM SCT120 23/19 A2995 RMK AO2
     T02250190=
KARV 210215Z AUTO 36005KT 7SM SCT018 SCT027 SCT037 19/17
     A3001 RMK AO2 T01850170=
KARV 210155Z AUTO 36003KT 10SM BKN018 BKN027 BKN037 19/18
     A3001 RMK AO2 T01910177=
KARV 210155Z AUTO 36003KT 10SM BKN018 BKN027 BKN037 19/18
     A3001 RMK AO2 T01910177=
KASX 210218Z AUTO 05011KT 3SM BR OVC006 16/16 A3006 RMK AO2
     T01610161=
KASX 210153Z AUTO 04011G19KT 2 1/2SM BR OVC006 16/16 A3006
     RMK AO2 SLP179 T01610161=
KASX 210153Z AUTO 04011G19KT 2 1/2SM BR OVC006 16/16 A3006
     RMK AO2 SLP179 T01610161=
KATW 210145Z 04006KT 10SM SCT035 BKN100 21/15 A2991=
KATW 210145Z 04006KT 10SM SCT035 BKN100 21/15 A2991=
KAUW 210154Z AUTO 36004KT 7SM CLR 19/18 A2995 RMK AO2 SLP142
     T01940178=
KAUW 210154Z AUTO 36004KT 7SM CLR 19/18 A2995 RMK AO2 SLP142
     T01940178=
KBUU 210215Z AUTO 12005KT 10SM OVC017 21/20 A2981 RMK AO2
     T02140203=
KBUU 210155Z AUTO 11007KT 10SM -RA OVC017 21/20 A2980 RMK
     AO2 T02120202=
KBUU 210155Z AUTO 11007KT 10SM -RA OVC017 21/20 A2980 RMK
     AO2 T02120202=
KCLI 210215Z AUTO 04005KT 10SM OVC110 21/18 A2994 RMK AO2
     T02080180=
KCLI 210215Z AUTO 04005KT 10SM OVC110 21/18 A2994 RMK AO2
     T02080180=
KCLI 210155Z AUTO 03004KT 10SM OVC110 21/18 A2994 RMK AO2
     T02090180=
KCLI 210155Z AUTO 03004KT 10SM OVC110 21/18 A2994 RMK AO2
     T02090180=
KCMY 210215Z AUTO 08005KT 10SM SCT037 SCT050 SCT075 17/16
     A2992 RMK AO2 T01660155=
KCMY 210215Z AUTO 08005KT 10SM SCT037 SCT050 SCT075 17/16
     A2992 RMK AO2 T01660155=
KCMY 210155Z AUTO 08007KT 10SM SCT011 BKN028 OVC037 17/15
     A2993 RMK AO2 T01700154=
KCMY 210155Z AUTO 08007KT 10SM SCT011 BKN028 OVC037 17/15
     A2993 RMK AO2 T01700154=
KCWA 210155Z 03005KT 10SM SCT100 19/18 A2996=
KCWA 210155Z 03005KT 10SM SCT100 19/18 A2996=
KDLL 210215Z AUTO 06011G16KT 4SM RA SCT006 BKN070 OVC085
     18/17 A2990 RMK AO2 LTG DSNT SE AND S P0004 T01830174=
KDLL 210215Z AUTO 06011G16KT 4SM RA SCT006 BKN070 OVC085
     18/17 A2990 RMK AO2 LTG DSNT SE AND S P0004 T01830174=
KDLL 210155Z AUTO 04009KT 3SM RA BKN006 BKN018 OVC085 19/18
     A2988 RMK AO2 LTG DSNT SE AND S P0019 T01850176=
KDLL 210155Z AUTO 04009KT 3SM RA BKN006 BKN018 OVC085 19/18
     A2988 RMK AO2 LTG DSNT SE AND S P0019 T01850176=
KEAU 210156Z AUTO 02003KT 9SM CLR 19/17 A2994 RMK AO2 SLP137
     T01890172=
KEAU 210156Z AUTO 02003KT 9SM CLR 19/17 A2994 RMK AO2 SLP137
     T01890172=
KEFT 210215Z AUTO 36007KT 10SM SCT060 19/19 A2980 RMK AO2
     LTG DSNT N THRU E T01920185=
KEFT 210215Z AUTO 36007KT 10SM SCT060 19/19 A2980 RMK AO2
     LTG DSNT N THRU E T01920185=
KEFT 210155Z AUTO 34005KT 10SM SCT007 SCT029 BKN060 19/19
     A2980 RMK AO2 LTG DSNT N THRU SE P0001 T01920185=
KEFT 210155Z AUTO 34005KT 10SM SCT007 SCT029 BKN060 19/19
     A2980 RMK AO2 LTG DSNT N THRU SE P0001 T01920185=
KEGV 210215Z AUTO 36006KT 7SM CLR 18/18 A2999 RMK AO2
     T01800177=
KEGV 210215Z AUTO 36006KT 7SM CLR 18/18 A2999 RMK AO2
     T01800177=
KEGV 210155Z AUTO 00000KT 7SM CLR 18/17 A2999 RMK AO2
     T01810172=
KEGV 210155Z AUTO 00000KT 7SM CLR 18/17 A2999 RMK AO2
     T01810172=
KENW 210217Z AUTO 11019G25KT 1 3/4SM +RA BR BKN015 OVC038
     22/22 A2981 RMK AO2 LTG DSNT SE-W RAB08 P0010
     T02220217=
KENW 210153Z 12014G24KT 10SM OVC017 23/22 A2980 RMK AO2 LTG
     DSNT SW-NW RAB35E48 SLP087 P0000 T02330217=
KENW 210153Z 12014G24KT 10SM OVC017 23/22 A2980 RMK AO2 LTG
     DSNT SW-NW RAB35E48 SLP087 P0000 T02330217=
KETB 210215Z AUTO 07012G18KT 7SM -RA SCT011 BKN026 OVC039
     20/20 A2987 RMK AO2=
KETB 210215Z AUTO 07012G18KT 7SM -RA SCT011 BKN026 OVC039
     20/20 A2987 RMK AO2=
KETB 210155Z AUTO 05007KT 3SM RA SCT015 BKN034 OVC043 20/20
     A2986 RMK AO2=
KETB 210155Z AUTO 05007KT 3SM RA SCT015 BKN034 OVC043 20/20
     A2986 RMK AO2=
KFLD 210153Z AUTO 04008KT 7SM -RA BKN085 OVC100 21/18 A2989
     RMK AO2 LTG DSNT S SLP117 P0003 T02110183=
KFLD 210153Z AUTO 04008KT 7SM -RA BKN085 OVC100 21/18 A2989
     RMK AO2 LTG DSNT S SLP117 P0003 T02110183=
KGRB 210153Z 05011KT 10SM CLR 22/19 A2992 RMK AO2 SLP130
     T02220189=
KGRB 210153Z 05011KT 10SM CLR 22/19 A2992 RMK AO2 SLP130
     T02220189=
KHYR 210153Z AUTO 03012KT 4SM BR OVC004 17/17 A3004 RMK AO2
     SLP171 T01670167=
KHYR 210153Z AUTO 03012KT 4SM BR OVC004 17/17 A3004 RMK AO2
     SLP171 T01670167=
KISW 210211Z AUTO 09006KT 7SM -RA SCT020 BKN046 OVC110 21/18
     A2995 RMK AO2 RAB03 P0000 T02110178 TSNO=
KISW 210154Z AUTO 06007KT 10SM BKN018 BKN048 OVC090 22/18
     A2995 RMK AO2 SLP138 T02170178 TSNO=
KISW 210154Z AUTO 06007KT 10SM BKN018 BKN048 OVC090 22/18
     A2995 RMK AO2 SLP138 T02170178 TSNO=
KJVL 210215Z AUTO 35005KT 10SM BKN010 OVC014 21/21 A2979 RMK
     AO2 P0001=
KJVL 210215Z AUTO 35005KT 10SM BKN010 OVC014 21/21 A2979 RMK
     AO2 P0001=
KJVL 210155Z AUTO 26003KT 10SM SCT008 BKN012 OVC025 21/21
     A2978 RMK AO2 P0012=
KJVL 210155Z AUTO 26003KT 10SM SCT008 BKN012 OVC025 21/21
     A2978 RMK AO2 P0012=
KJVL 210145Z 00000KT 6SM -RA SCT007 BKN0113 OVC027 22/22
     A2978 RMK LAST=
KJVL 210145Z 00000KT 6SM -RA SCT007 BKN0113 OVC027 22/22
     A2978 RMK LAST=
KLNL 210215Z AUTO 36006KT 10SM CLR 19/17 A3003 RMK AO2
     T01860166=
KLNL 210215Z AUTO 36006KT 10SM CLR 19/17 A3003 RMK AO2
     T01860166=
KLNL 210155Z AUTO 34004KT 10SM CLR 19/16 A3003 RMK AO2
     T01900163=
KLNL 210155Z AUTO 34004KT 10SM CLR 19/16 A3003 RMK AO2
     T01900163=
KLNR 210219Z AUTO 06005KT 2 1/2SM RA BR BKN012 OVC016 19/19
     A2986 RMK AO2 LTG DSNT NE AND SE P0008 T01940189=
KLNR 210156Z AUTO 05003KT 6SM -RA BR BKN014 OVC075 19/19
     A2986 RMK AO2 LTG DSNT NE-SE SLP102 P0015 T01940189=
KLNR 210156Z AUTO 05003KT 6SM -RA BR BKN014 OVC075 19/19
     A2986 RMK AO2 LTG DSNT NE-SE SLP102 P0015 T01940189=
KLSE 210153Z 02008KT 10SM -RA BKN100 21/15 A2989 RMK AO2
     RAE27B49 SLP115 P0000 T02060150=
KLSE 210153Z 02008KT 10SM -RA BKN100 21/15 A2989 RMK AO2
     RAE27B49 SLP115 P0000 T02060150=
KLUM 210215Z AUTO 33005KT 10SM SCT120 19/17 A2997 RMK AO2
     T01870170=
KLUM 210215Z AUTO 33005KT 10SM SCT120 19/17 A2997 RMK AO2
     T01870170=
KLUM 210155Z AUTO 33005KT 10SM SCT120 19/17 A2997 RMK AO2
     T01930168=
KLUM 210155Z AUTO 33005KT 10SM SCT120 19/17 A2997 RMK AO2
     T01930168=
KMDZ 210215Z AUTO 35006KT 7SM -DZ SCT013 SCT080 OVC100 18/17
     A2997 RMK AO2 T01790170=
KMDZ 210215Z AUTO 35006KT 7SM -DZ SCT013 SCT080 OVC100 18/17
     A2997 RMK AO2 T01790170=
KMDZ 210155Z AUTO 00000KT 7SM DZ SCT013 OVC100 18/17 A2998
     RMK AO2 T01790170=
KMDZ 210155Z AUTO 00000KT 7SM DZ SCT013 OVC100 18/17 A2998
     RMK AO2 T01790170=
KMFI 210154Z AUTO 06006KT 7SM FEW095 19/18 A2994 RMK AO2
     SLP136 T01940183 TSNO=
KMFI 210154Z AUTO 06006KT 7SM FEW095 19/18 A2994 RMK AO2
     SLP136 T01940183 TSNO=
KMKE 210152Z 11018G26KT 9SM -RA OVC027 24/19 A2981 RMK AO2
     PK WND 10026/0152 LTG DSNT W RAB51 SLP090 P0000
     T02390194 $=
KMKE 210152Z 11018G26KT 9SM -RA OVC027 24/19 A2981 RMK AO2
     PK WND 10026/0152 LTG DSNT W RAB51 SLP090 P0000
     T02390194 $=
KMRJ 210215Z AUTO 02014G21KT 7SM -RA SCT045 BKN050 OVC065
     18/18 A2983 RMK AO2 P0002=
KMRJ 210215Z AUTO 02014G21KT 7SM -RA SCT045 BKN050 OVC065
     18/18 A2983 RMK AO2 P0002=
KMRJ 210155Z AUTO 03015G24KT 10SM -RA SCT046 OVC050 18/18
     A2983 RMK AO2 P0003=
KMRJ 210155Z AUTO 03015G24KT 10SM -RA SCT046 OVC050 18/18
     A2983 RMK AO2 P0003=
KMSN 210207Z 04018G28KT 1SM R36/3500VP6000FT VCTS +RA BR
     FEW010 BKN018 OVC027 19/18 A2981=
KMSN 210207Z 04018G28KT 1SM R36/3500VP6000FT VCTS +RA BR
     FEW010 BKN018 OVC027 19/18 A2981 RMK AO2 PK WND
     03028/0205 SFC VIS 1 1/2 LTG DSNT ALQDS P0011
     T01890183=
KMSN 210153Z 04017G25KT 2SM R36/4000VP6000FT VCTS +RA BR
     FEW008 BKN022 OVC036 19/18 A2981 RMK AO2 PK WND
     04028/0126 TWR VIS 3 LTG DSNT ALQDS TSB04E19 SLP091 FRQ
     LTG DSNT W P0058
KMSN 210153Z 04017G25KT 2SM R36/4000VP6000FT VCTS +RA BR
     FEW008 BKN022 OVC036 19/18 A2981 RMK AO2 PK WND
     04028/0126 TWR VIS 3 LTG DSNT ALQDS TSB04E19 SLP091 FRQ
     LTG DSNT W P0058
KMTW 210156Z AUTO 02005KT 10SM FEW075 SCT100 BKN120 22/19
     A2991 RMK AO2 SLP140 T02220194=
KMTW 210156Z AUTO 02005KT 10SM FEW075 SCT100 BKN120 22/19
     A2991 RMK AO2 SLP140 T02220194=
KMWC 210215Z AUTO 09003KT 10SM -RA OVC026 21/17 A2983 RMK
     AO2 P0001=
KMWC 210215Z AUTO 09003KT 10SM -RA OVC026 21/17 A2983 RMK
     AO2 P0001=
KMWC 210155Z AUTO 07003KT 10SM BKN024 OVC032 21/17 A2983 RMK
     AO2 P0022=
KMWC 210155Z AUTO 07003KT 10SM BKN024 OVC032 21/17 A2983 RMK
     AO2 P0022=
KOEO 210215Z AUTO 00000KT 7SM SCT050 18/17 A3004 RMK AO2
     T01790172=
KOEO 210215Z AUTO 00000KT 7SM SCT050 18/17 A3004 RMK AO2
     T01790172=
KOEO 210155Z AUTO 00000KT 10SM CLR 18/17 A3004 RMK AO2
     T01760169=
KOEO 210155Z AUTO 00000KT 10SM CLR 18/17 A3004 RMK AO2
     T01760169=
KOSH 210153Z 05009G20KT 9SM -RA OVC100 22/18 A2989 RMK AO2
     RAE0054B32 SLP110 P0000 T02220183=
KOSH 210153Z 05009G20KT 9SM -RA OVC100 22/18 A2989 RMK AO2
     RAE0054B32 SLP110 P0000 T02220183=
KOVS 210213Z AUTO 03004KT 7SM -RA BKN020 OVC030 20/18 A2986
     RMK AO2 RAB05 P0000 T02000183=
KOVS 210153Z AUTO 03005KT 8SM FEW025 SCT034 OVC095 20/18
     A2987 RMK AO2 RAE02 SLP112 P0000 T02000178=
KOVS 210153Z AUTO 03005KT 8SM FEW025 SCT034 OVC095 20/18
     A2987 RMK AO2 RAE02 SLP112 P0000 T02000178=
KPBH 210215Z AUTO 35005KT 10SM BKN008 BKN065 18/18 A3001 RMK
     AO2 T01800180=
KPBH 210215Z AUTO 35005KT 10SM BKN008 BKN065 18/18 A3001 RMK
     AO2 T01800180=
KPBH 210155Z AUTO 36005KT 10SM BKN008 18/18 A3000 RMK AO2
     T01830183=
KPBH 210155Z AUTO 36005KT 10SM BKN008 18/18 A3000 RMK AO2
     T01830183=
KPCZ 210215Z AUTO 35005KT 7SM RA SCT043 SCT050 BKN065 21/20
     A2993 RMK AO2 T02120202=
KPCZ 210215Z AUTO 35005KT 7SM RA SCT043 SCT050 BKN065 21/20
     A2993 RMK AO2 T02120202=
KPCZ 210155Z AUTO 02004KT 7SM -RA SCT050 SCT065 SCT080 22/20
     A2994 RMK AO2 T02160203=
KPCZ 210155Z AUTO 02004KT 7SM -RA SCT050 SCT065 SCT080 22/20
     A2994 RMK AO2 T02160203=
KPDC 210215Z AUTO 04007KT 10SM OVC095 20/17 A2986 RMK AO2
     T02030169=
KPDC 210215Z AUTO 04007KT 10SM OVC095 20/17 A2986 RMK AO2
     T02030169=
KPDC 210155Z AUTO 03007KT 350V050 10SM OVC085 21/17 A2986
     RMK AO2 T02050170=
KPDC 210155Z AUTO 03007KT 350V050 10SM OVC085 21/17 A2986
     RMK AO2 T02050170=
KRAC 210153Z AUTO 10SM OVC024 23/21 A2982 RMK AO2 PK WND
     11027/0112 LTG DSNT NW RAB17E53 SLP093 P0009 T02280206=
KRAC 210153Z AUTO 10SM OVC024 23/21 A2982 RMK AO2 PK WND
     11027/0112 LTG DSNT NW RAB17E53 SLP093 P0009 T02280206=
KRCX 210215Z AUTO 10SM OVC007 19/18 A3002 RMK AO2 T01870175=
KRCX 210215Z AUTO 10SM OVC007 19/18 A3002 RMK AO2 T01870175=
KRCX 210155Z AUTO 10SM OVC007 19/18 A3001 RMK AO2 T01900177=
KRCX 210155Z AUTO 10SM OVC007 19/18 A3001 RMK AO2 T01900177=
KRHI 210153Z AUTO 15007KT 8SM FEW019 BKN110 21/18 A3001 RMK
     AO2 RAB0055E04 SLP156 P0000 T02060183=
KRHI 210153Z AUTO 15007KT 8SM FEW019 BKN110 21/18 A3001 RMK
     AO2 RAB0055E04 SLP156 P0000 T02060183=
KRNH 210215Z AUTO 01004KT 7SM CLR 17/16 A3001 RMK AO2
     T01720163=
KRNH 210215Z AUTO 01004KT 7SM CLR 17/16 A3001 RMK AO2
     T01720163=
KRNH 210155Z AUTO 36004KT 7SM CLR 17/16 A3001 RMK AO2
     T01730162=
KRNH 210155Z AUTO 36004KT 7SM CLR 17/16 A3001 RMK AO2
     T01730162=
KRPD 210215Z AUTO 00000KT 7SM BKN010 BKN050 17/06 A3002 RMK
     AO2 T01700064=
KRPD 210215Z AUTO 00000KT 7SM BKN010 BKN050 17/06 A3002 RMK
     AO2 T01700064=
KRPD 210155Z AUTO 00000KT 7SM CLR 17/04 A3001 RMK AO2
     T01650043=
KRPD 210155Z AUTO 00000KT 7SM CLR 17/04 A3001 RMK AO2
     T01650043=
KRRL 210215Z AUTO 00000KT 10SM OVC110 19/19 A2997 RMK AO2
     T01900186 TSNO=
KRRL 210215Z AUTO 00000KT 10SM OVC110 19/19 A2997 RMK AO2
     T01900186 TSNO=
KRRL 210155Z AUTO 00000KT 7SM OVC110 19/19 A2997 RMK AO2
     T01880185 TSNO=
KRRL 210155Z AUTO 00000KT 7SM OVC110 19/19 A2997 RMK AO2
     T01880185 TSNO=
KRYV 210215Z AUTO 04015G23KT 4SM -RA SCT006 BKN029 OVC041
     20/20 A2982 RMK AO2 LTG DSNT ALQS P0012 T01950195=
KRYV 210215Z AUTO 04015G23KT 4SM -RA SCT006 BKN029 OVC041
     20/20 A2982 RMK AO2 LTG DSNT ALQS P0012 T01950195=
KRYV 210155Z AUTO 06012G17KT 3SM RA SCT008 BKN021 OVC035
     20/20 A2983 RMK AO2 LTG DSNT ALQS P0049 T01950195=
KRYV 210155Z AUTO 06012G17KT 3SM RA SCT008 BKN021 OVC035
     20/20 A2983 RMK AO2 LTG DSNT ALQS P0049 T01950195=
KSBM 210153Z AUTO 04013KT 9SM BKN090 22/20 A2987 RMK AO2
     SLP111 T02220200 TSNO=
KSBM 210153Z AUTO 04013KT 9SM BKN090 22/20 A2987 RMK AO2
     SLP111 T02220200 TSNO=
KSTE 210215Z AUTO 08008KT 7SM RA SCT021 BKN060 OVC075 19/19
     A2996 RMK AO2 P0003 T01850185=
KSTE 210215Z AUTO 08008KT 7SM RA SCT021 BKN060 OVC075 19/19
     A2996 RMK AO2 P0003 T01850185=
KSTE 210155Z AUTO 07004KT 7SM RA SCT020 SCT027 OVC075 19/19
     A2996 RMK AO2 T01920187=
KSTE 210155Z AUTO 07004KT 7SM RA SCT020 SCT027 OVC075 19/19
     A2996 RMK AO2 T01920187=
KSUE 210156Z AUTO 05006KT 10SM CLR 21/18 A2994 RMK AO2
     SLP152 T02110183=
KSUE 210156Z AUTO 05006KT 10SM CLR 21/18 A2994 RMK AO2
     SLP152 T02110183=
KSUW 210215Z AUTO 08004KT 10SM OVC012 17/16 A3005 RMK AO2
     T01730160=
KSUW 210215Z AUTO 08004KT 10SM OVC012 17/16 A3005 RMK AO2
     T01730160=
KSUW 210155Z AUTO 07006KT 10SM OVC012 18/16 A3005 RMK AO2
     T01750160=
KSUW 210155Z AUTO 07006KT 10SM OVC012 18/16 A3005 RMK AO2
     T01750160=
KTKV 210215Z AUTO 34004KT 10SM BKN018 BKN025 BKN049 18/17
     A3000 RMK AO2 T01830170=
KTKV 210215Z AUTO 34004KT 10SM BKN018 BKN025 BKN049 18/17
     A3000 RMK AO2 T01830170=
KTKV 210155Z AUTO 00000KT 10SM SCT023 SCT049 SCT120 18/17
     A3000 RMK AO2 T01820170=
KTKV 210155Z AUTO 00000KT 10SM SCT023 SCT049 SCT120 18/17
     A3000 RMK AO2 T01820170=
KUES 210215Z AUTO 06006KT 5SM +RA OVC026 19/18 A2984 RMK AO2
     P0003=
KUES 210215Z AUTO 06006KT 5SM +RA OVC026 19/18 A2984 RMK AO2
     P0003=
KUES 210145Z 05006KT 7SM OVC026 19/19 A2983 RMK LAST=
KUES 210145Z 05006KT 7SM OVC026 19/19 A2983 RMK LAST=
KUNU 210215Z AUTO 03010G16KT 5SM RA SCT018 BKN033 OVC050
     20/19 A2987 RMK AO2 LTG DSNT E AND SW P0005 T01980191=
KUNU 210215Z AUTO 03010G16KT 5SM RA SCT018 BKN033 OVC050
     20/19 A2987 RMK AO2 LTG DSNT E AND SW P0005 T01980191=
KUNU 210155Z AUTO 02011G16KT 4SM VCTSRA SCT035 SCT044 OVC050
     20/19 A2987 RMK AO2 LTG DSNT S THRU W P0008 T02000191=
KUNU 210155Z AUTO 02011G16KT 4SM VCTSRA SCT035 SCT044 OVC050
     20/19 A2987 RMK AO2 LTG DSNT S THRU W P0008 T02000191=
KVOK 210156Z AUTO 07007KT 10SM CLR 18/18 A2992 RMK AO2
     DZB00E18DZB40E43RAB43E53DZB53 SLP133 P0001 T01830180=
KVOK 210156Z AUTO 07007KT 10SM CLR 18/18 A2992 RMK AO2
     DZB00E18DZB40E43RAB43E53DZB53 SLP133 P0001 T01830180=
KVOK 210156Z AUTO 07007KT 10SM CLR 18/18 A2992 RMK AO2
     DZB00E18DZB40E43RAB43E53DZB53 SLP133 P0001 T01830180=
METAR KVOK 210156Z AUTO 07007KT 10SM CLR 18/18 A2992 RMK AO2
     DZB00E18DZB40E43RAB 43E53DZB53 SLP133 P0001 T01830180=
METAR KVOK 210156Z AUTO 07007KT 10SM CLR 18/18 A2992 RMK AO2
     DZB00E18DZB40E43RAB 43E53DZB53 SLP133 P0001 T01830180=
KY50 210156Z AUTO 01006KT 9SM -RA OVC100 19/18 A2992 RMK AO2
     SLP147 P0005 T01940183=
KY50 210156Z AUTO 01006KT 9SM -RA OVC100 19/18 A2992 RMK AO2
     SLP147 P0005 T01940183=
KY51 210215Z AUTO 05004KT 10SM SCT021 OVC095 19/19 A2991 RMK
     AO1 T01870187=
KY51 210215Z AUTO 05004KT 10SM SCT021 OVC095 19/19 A2991 RMK
     AO1 T01870187=
KY51 210155Z AUTO 04006KT 10SM SCT070 OVC085 19/19 A2991 RMK
     AO1 T01900190=
KY51 210155Z AUTO 04006KT 10SM SCT070 OVC085 19/19 A2991 RMK
     AO1 T01900190=
KY23 210215Z AUTO 33003KT 10SM BKN012 17/17 A3001 RMK AO2
     T01720170=
KY23 210215Z AUTO 33003KT 10SM BKN012 17/17 A3001 RMK AO2
     T01720170=
KY23 210155Z AUTO 32003KT 10SM CLR 17/17 A3000 RMK AO2
     T01720170=
KY23 210155Z AUTO 32003KT 10SM CLR 17/17 A3000 RMK AO2
     T01720170=
K3D2 210215Z AUTO 08003KT 10SM CLR 20/18 A2994 RMK AO2
     T02020181=
K3D2 210215Z AUTO 08003KT 10SM CLR 20/18 A2994 RMK AO2
     T02020181=
K3D2 210155Z AUTO 07003KT 10SM CLR 20/18 A2995 RMK AO2
     T02020180=
K3D2 210155Z AUTO 07003KT 10SM CLR 20/18 A2995 RMK AO2
     T02020180=
KD25 210215Z AUTO 03006KT 10SM OVC006 17/17 A3002 RMK AO2
     T01710171=
KD25 210215Z AUTO 03006KT 10SM OVC006 17/17 A3002 RMK AO2
     T01710171=
KD25 210155Z AUTO 36007KT 10SM OVC006 18/18 A3002 RMK AO2
     T01790179=
KD25 210155Z AUTO 36007KT 10SM OVC006 18/18 A3002 RMK AO2
     T01790179=
K82C 210215Z AUTO 00000KT 5SM -RA SCT046 SCT060 BKN065 18/17
     A2991 RMK AO2 T01800170=
K82C 210215Z AUTO 00000KT 5SM -RA SCT046 SCT060 BKN065 18/17
     A2991 RMK AO2 T01800170=
K82C 210155Z AUTO 00000KT 5SM -RA SCT050 BKN060 OVC095 18/17
     A2991 RMK AO2 P0010 T01820170=
K82C 210155Z AUTO 00000KT 5SM -RA SCT050 BKN060 OVC095 18/17
     A2991 RMK AO2 P0010 T01820170=
KOCQ 210215Z AUTO 01005KT 10SM CLR 21/18 A2993 RMK AO1
     T02100180=
KOCQ 210215Z AUTO 01005KT 10SM CLR 21/18 A2993 RMK AO1
     T02100180=
KOCQ 210155Z AUTO 05004KT 10SM CLR 22/18 A2993 RMK AO1
     T02160180=
KOCQ 210155Z AUTO 05004KT 10SM CLR 22/18 A2993 RMK AO1
     T02160180=
KC35 210215Z AUTO 03010KT 5SM RA SCT017 BKN065 OVC090 18/18
     A2989 RMK AO2 P0003 T01800180=
KC35 210215Z AUTO 03010KT 5SM RA SCT017 BKN065 OVC090 18/18
     A2989 RMK AO2 P0003 T01800180=
KC35 210155Z AUTO 02008G14KT 5SM RA SCT021 BKN080 OVC100
     18/18 A2989 RMK AO2 P0008 T01800180=
KC35 210155Z AUTO 02008G14KT 5SM RA SCT021 BKN080 OVC100
     18/18 A2989 RMK AO2 P0008 T01800180=
KOLG 210215Z AUTO 05006KT 10SM OVC009 17/15 A3005 RMK AO1=
KOLG 210215Z AUTO 05006KT 10SM OVC009 17/15 A3005 RMK AO1=
KOLG 210155Z AUTO 06005KT 10SM BKN009 OVC022 17/15 A3004 RMK
     AO1=
KOLG 210155Z AUTO 06005KT 10SM BKN009 OVC022 17/15 A3004 RMK
     AO1=
K2P2 210215Z AUTO 04004KT 10SM SCT120 21/19 A2995 RMK AO2
     T02060189=
K2P2 210215Z AUTO 04004KT 10SM SCT120 21/19 A2995 RMK AO2
     T02060189=
K2P2 210155Z AUTO 00000KT 10SM SCT110 21/19 A2995 RMK AO2
     T02050188=
K2P2 210155Z AUTO 00000KT 10SM SCT110 21/19 A2995 RMK AO2
     T02050188=
KDBQ 210153Z AUTO 03011G19KT 10SM OVC012 19/17 A2982 RMK AO2
     SLP095 T01890172=
KDBQ 210153Z AUTO 03011G19KT 10SM OVC012 19/17 A2982 RMK AO2
     SLP095 T01890172=
KRST 210154Z 02009KT 10SM OVC110 18/17 A2996 RMK AO2 SLP139
     T01830167=
KRST 210154Z 02009KT 10SM OVC110 18/17 A2996 RMK AO2 SLP139
     T01830167=
KMSP 210153Z 02004KT 8SM FEW041 SCT120 BKN250 21/17 A2999
     RMK AO2 SLP154 T02060167=
KMSP 210153Z 02004KT 8SM FEW041 SCT120 BKN250 21/17 A2999
     RMK AO2 SLP154 T02060167=
KRFD 210154Z 16005KT 10SM SCT055 BKN170 BKN200 21/20 A2979
     RMK AO2 LTG DSNT NE SLP083 T02110200=
KRFD 210154Z 16005KT 10SM SCT055 BKN170 BKN200 21/20 A2979
     RMK AO2 LTG DSNT NE SLP083 T02110200=
KORD 210212Z 10006KT 10SM FEW046 SCT060 BKN075 BKN140 OVC250
     22/18 A2980 RMK AO2 LTG DSNT N-SE FRQ LTGICCG DSNT
     N-NE-E CB DSNT N-NE-E MOV NE T02170183 $=
KORD 210151Z 17006KT 10SM TS SCT033CB SCT075 BKN085 21/18
     A2979 RMK AO2 LTG DSNT NE-SE RAE41 SLP084 FRQ LTGICCG
     N-NE TS N-NE MOV NE P0053 T02110183 $=
KORD 210151Z 17006KT 10SM TS SCT033CB SCT075 BKN085 21/18
     A2979 RMK AO2 LTG DSNT NE-SE RAE41 SLP084 FRQ LTGICCG
     N-NE TS N-NE MOV NE P0053 T02110183 $=